Regional Weather Roundup
Issued by NWS

Home | Current Version | Previous Version | Graphics & Text | Print | Product List | Glossary On
Versions: 1 2 3 4 5 6 7 8 9 10 11 12 13 14 15 16 17 18 19 20 21 22 23 24 25 26 27 28 29 30 31 32 33 34 35 36 37 38 39 40 41 42 43 44 45 46 47 48 49 50
000
ASUS43 KLOT 292308
RWRIL

ILLINOIS REGIONAL WEATHER ROUNDUP
NATIONAL WEATHER SERVICE CHICAGO/ROMEOVILLE IL
600 PM CDT WED MAR 29 2017

NOTE: "FAIR" INDICATES FEW OR NO CLOUDS BELOW 12,000 FEET WITH NO
SIGNIFICANT WEATHER AND/OR OBSTRUCTIONS TO VISIBILITY.

* THESE STATIONS ARE NOT UNDER NWS QUALITY CONTROL. THEY ALSO MAY NOT
  REPORT WEATHER SUCH AS PRECIPITATION OR FOG.

ILZ001-002-007-009-015-016-024-300000-
NORTHWEST ILLINOIS

CITY           SKY/WX    TMP DP  RH WIND       PRES   REMARKS
MOLINE         LGT RAIN  46  41  82 NE18      29.96F
STERLING*      LGT RAIN  44  40  85 E21       30.02R
SAVANNA*       RAIN      44  40  85 NE16G22   30.04F
$$

ILZ003-004-008-010-011-017-018-300000-
NORTH CENTRAL ILLINOIS

CITY           SKY/WX    TMP DP  RH WIND       PRES   REMARKS
ROCKFORD       LGT RAIN  45  37  73 E14       30.08F
FREEPORT*      CLOUDY    43  37  80 E14       30.10R
ROCHELLE*      RAIN      44  38  81 E16G25    30.05R
DE KALB*       CLOUDY    45  37  72 E15G21    30.04S
PERU*          LGT RAIN  45  40  83 E20       30.01S
$$

ILZ005-006-012>014-019>023-300000-
NORTHEAST ILLINOIS

CITY           SKY/WX    TMP DP  RH WIND       PRES   REMARKS
CHICAGO-OHARE  CLOUDY    47  34  60 NE18      30.06F
CHICAGO-MIDWAY CLOUDY    48  35  60 E20       30.05F
AURORA         CLOUDY    49  35  58 E20G25    30.03F
LANSING*       CLOUDY    49  40  70 NE7       30.05S
JOLIET*        CLOUDY    50  38  63 NE13G20   30.03F
WAUKEGAN       LGT RAIN  41  34  76 NE12G23   30.10F
DUPAGE AIRPORT CLOUDY    48  36  63 E17G25    30.04F
KANKAKEE*      CLOUDY    53  38  58 E17G23    30.01F
WHEELING       CLOUDY    44  35  70 NE17G25   30.10F
MORRIS*        LGT RAIN  48  38  70 E12       30.02R
ROMEOVILLE*    CLOUDY    47  39  73 E12       30.04S
NORTHERLY ISL    N/A     41  36  82 NE18        N/A
$$

LMZ740>746-300000-
SOUTHERN LAKE MICHIGAN

STATION/POSITION SKY/WX   TEMP    WIND        PRES    VSBY  WAVE
                          AIR SEA DIR/SP/G                  HT/PER
                          (F)     (DEG/KT/KT) (MB)    (MI)  (FT/S)
HARRISON CRIB              42      50/ 24/ 26   N/A
BURNHAM HARBOR             41      30/ 15/ 17   N/A
CALUMET HARBOR             43      40/ 13/ 20 1017.7F
BURNS HARBOR               53      90/ 15/ 21 1018.3F
MICHIGAN CITY              54      60/ 18/ 20   N/A
$$

ILZ025>027-034>036-040-047-049-050-058-095>099-300000-
WEST-CENTRAL ILLINOIS

CITY           SKY/WX    TMP DP  RH WIND       PRES   REMARKS
QUINCY         CLOUDY    53  49  86 E17G23    29.86R
GALESBURG*     CLOUDY    49  42  78 E16G22    29.91S
MACOMB*        CLOUDY    50  45  83 E20G26    29.92S
JACKSONVILLE*  CLOUDY    54  49  83 E21       29.88S
PITTSFIELD*    CLOUDY    55  51  87 E14       29.88R
$$

ILZ028>032-037-038-041>044-048-051>054-059>061-300000-
CENTRAL ILLINOIS

CITY           SKY/WX    TMP DP  RH WIND       PRES   REMARKS
PONTIAC        LGT RAIN  50  45  83 E22G28    30.00S
BLOOMINGTON    CLOUDY    50  44  80 E24       29.95F
DECATUR        CLOUDY    54  47  77 E18       29.94S
PEORIA         CLOUDY    50  43  77 E18G25    29.93F
LACON*         LGT RAIN  48  44  85 E13G20    29.98F
LINCOLN*       CLOUDY    53  46  77 E20G26    29.92F
SPRINGFIELD    CLOUDY    55  47  74 E18G26    29.89F
TAYLORVILLE    CLOUDY    55  48  76 E16G25    29.90F
$$

ILZ033-039-045-046-055>057-062-063-300000-
EAST-CENTRAL ILLINOIS

CITY           SKY/WX    TMP DP  RH WIND       PRES   REMARKS
CHAMPAIGN      CLOUDY    54  43  66 E18       29.96F
RANTOUL*       CLOUDY    56  45  67 E18G24    29.98S
MATTOON        CLOUDY    56  48  74 E12       29.94F
PARIS*         CLOUDY    57  46  67 E16G24    29.99F
$$

ILZ079-100>102-300000-
SOUTHWEST ILLINOIS

CITY           SKY/WX    TMP DP  RH WIND       PRES   REMARKS
ALTON          CLOUDY    61  54  77 E16       29.86F
BELLEVILLE     CLOUDY    66  56  70 E16       29.84F
CAHOKIA*       PTSUNNY   67  55  65 E10       29.82F
SPARTA*        CLOUDY    67  57  68 E12       29.86S
$$

ILZ064>066-069>071-074>076-080>082-084>086-088>090-092>094-300000-
SOUTH-CENTRAL ILLINOIS

CITY           SKY/WX    TMP DP  RH WIND       PRES   REMARKS
CARBONDALE     CLOUDY    70  59  68 SE9       29.85F
CAIRO*         CLOUDY    73  62  68 E7        29.83S
EFFINGHAM*     CLOUDY    59  51  74 E13G18    29.95F
MARION         PTSUNNY   73  57  56 E7        29.87F
MT. VERNON     CLOUDY    68  54  60 E9G21     29.89F
CENTRALIA*     CLOUDY    68  55  63 E10       29.88S
SALEM*         CLOUDY    65  52  63 E8G16     29.90S
METROPOLIS*    PTSUNNY   73  60  63 E3        29.86S
$$

ILZ067-068-072-073-078-083-087-091-300000-
SOUTHEAST ILLINOIS

CITY           SKY/WX    TMP DP  RH WIND       PRES   REMARKS
LAWRENCEVILLE  CLOUDY    62  51  67 E12       29.95F
FLORA*         CLOUDY    64  53  66 E13       29.93S
FAIRFIELD*     CLOUDY    67  54  61 E7        29.90S
HARRISBURG*    CLOUDY    70  58  66 E10       29.88F
ROBINSON*      CLOUDY    60  49  68 E14       29.96F
CARMI*         CLOUDY    69  55  61 E13       29.89S
$$

ABBREVIATIONS USED IN REMARKS
   TC - TEMPERATURE IN CELSIUS
  WCI - WIND CHILL INDEX
   HX - HEAT INDEX
  VSB - VISIBILITY
$$




USA.gov is the U.S. government's official web portal to all federal, state and local government web resources and services.